KCN09 WIPP-WIHH

Flight info

Callsign KCN09
Flight time 0h 57m
Altitude 27000
Route BORAS G461 BIDAK
Aircraft B738/M-SDE2E3FGHIRWXY/LB1

Departure

Time 2026-05-07 10:15
Airport Sultan Mahmud Badaruddin II Airport (WIPP)

Arrival

Time 2026-05-07 11:12
Airport Halim Perdanakusuma International Airport (WIHH)
Time Latitude Longitude Altitude Speed Heading
2026-05-07 09:42 -2.89522 104.70228 25 ft 0 kts 23°
2026-05-07 10:02 -2.89526 104.70227 25 ft 3 kts 23°
2026-05-07 10:02 -2.89551 104.70216 31 ft 4 kts 22°
2026-05-07 10:03 -2.89576 104.70207 30 ft 4 kts 16°
2026-05-07 10:03 -2.89602 104.70203 29 ft 4 kts 348°
2026-05-07 10:03 -2.89617 104.70213 29 ft 4 kts 292°
2026-05-07 10:03 -2.89627 104.70238 30 ft 4 kts 292°
2026-05-07 10:04 -2.89638 104.70263 31 ft 4 kts 293°
2026-05-07 10:04 -2.89648 104.70288 29 ft 4 kts 293°
2026-05-07 10:04 -2.89659 104.70312 30 ft 3 kts 293°
2026-05-07 10:04 -2.89660 104.70316 30 ft 1 kts 293°
2026-05-07 10:07 -2.89659 104.70314 30 ft 1 kts 293°
2026-05-07 10:07 -2.89652 104.70293 29 ft 5 kts 283°
2026-05-07 10:08 -2.89659 104.70258 27 ft 6 kts 245°
2026-05-07 10:08 -2.89690 104.70232 27 ft 8 kts 211°
2026-05-07 10:08 -2.89726 104.70206 25 ft 2 kts 222°
2026-05-07 10:08 -2.89733 104.70182 24 ft 4 kts 283°
2026-05-07 10:09 -2.89715 104.70140 23 ft 10 kts 292°
2026-05-07 10:09 -2.89679 104.70053 22 ft 18 kts 293°
2026-05-07 10:09 -2.89618 104.69911 19 ft 26 kts 291°
2026-05-07 10:09 -2.89551 104.69750 20 ft 24 kts 293°
2026-05-07 10:10 -2.89488 104.69601 16 ft 23 kts 292°
2026-05-07 10:10 -2.89427 104.69457 18 ft 22 kts 293°
2026-05-07 10:10 -2.89368 104.69317 18 ft 22 kts 291°
2026-05-07 10:10 -2.89310 104.69178 18 ft 21 kts 292°
2026-05-07 10:11 -2.89266 104.69068 20 ft 11 kts 281°
2026-05-07 10:11 -2.89290 104.69009 21 ft 6 kts 217°
2026-05-07 10:11 -2.89303 104.69002 19 ft 0 kts 204°
2026-05-07 10:13 -2.89306 104.69001 19 ft 2 kts 204°
2026-05-07 10:13 -2.89332 104.68989 20 ft 7 kts 204°
2026-05-07 10:13 -2.89380 104.68968 19 ft 4 kts 198°
2026-05-07 10:13 -2.89401 104.68978 21 ft 4 kts 132°
2026-05-07 10:14 -2.89416 104.69008 19 ft 6 kts 114°
2026-05-07 10:14 -2.89443 104.69072 19 ft 20 kts 112°
2026-05-07 10:14 -2.89613 104.69475 14 ft 104 kts 113°
2026-05-07 10:14 -2.89988 104.70361 107 ft 164 kts 113°
2026-05-07 10:15 -2.90439 104.71457 880 ft 173 kts 113°
2026-05-07 10:15 -2.90896 104.72506 2064 ft 152 kts 115°
2026-05-07 10:15 -2.91257 104.73529 2826 ft 169 kts 108°
2026-05-07 10:15 -2.91610 104.74788 3137 ft 204 kts 107°
2026-05-07 10:16 -2.92023 104.76241 3401 ft 227 kts 107°
2026-05-07 10:16 -2.92479 104.77781 4013 ft 235 kts 108°
2026-05-07 10:16 -2.92988 104.79429 4369 ft 258 kts 108°
2026-05-07 10:16 -2.93540 104.81169 5155 ft 265 kts 108°
2026-05-07 10:17 -2.94103 104.82922 6148 ft 266 kts 108°
2026-05-07 10:17 -2.94668 104.84672 6983 ft 270 kts 108°
2026-05-07 10:17 -2.95431 104.86398 7774 ft 276 kts 125°
2026-05-07 10:17 -2.96749 104.87805 8624 ft 280 kts 136°
2026-05-07 10:18 -2.98205 104.89121 9453 ft 285 kts 137°
2026-05-07 10:18 -2.99704 104.90444 10221 ft 289 kts 137°
2026-05-07 10:18 -3.01269 104.91824 10549 ft 312 kts 137°
2026-05-07 10:18 -3.02958 104.93322 10735 ft 336 kts 137°
2026-05-07 10:19 -3.04745 104.94913 11136 ft 349 kts 137°
2026-05-07 10:19 -3.06570 104.96543 11800 ft 354 kts 137°
2026-05-07 10:19 -3.08410 104.98190 12530 ft 356 kts 137°
2026-05-07 10:19 -3.10265 104.99854 13212 ft 360 kts 137°
2026-05-07 10:20 -3.12139 105.01537 13851 ft 364 kts 136°
2026-05-07 10:20 -3.14032 105.03239 14426 ft 368 kts 136°
2026-05-07 10:20 -3.15940 105.04955 14987 ft 372 kts 136°
2026-05-07 10:20 -3.17872 105.06692 15554 ft 375 kts 136°
2026-05-07 10:21 -3.19827 105.08450 16115 ft 379 kts 136°
2026-05-07 10:21 -3.21797 105.10224 16680 ft 382 kts 136°
2026-05-07 10:21 -3.23783 105.12010 17237 ft 386 kts 136°
2026-05-07 10:21 -3.25792 105.13818 17758 ft 390 kts 136°
2026-05-07 10:22 -3.27790 105.15616 18240 ft 394 kts 136°
2026-05-07 10:22 -3.29833 105.17454 18688 ft 397 kts 136°
2026-05-07 10:22 -3.31894 105.19309 19143 ft 399 kts 136°
2026-05-07 10:22 -3.33964 105.21172 19589 ft 402 kts 136°
2026-05-07 10:23 -3.36058 105.23056 20019 ft 405 kts 136°
2026-05-07 10:23 -3.38155 105.24954 20446 ft 408 kts 135°
2026-05-07 10:23 -3.40118 105.27021 20854 ft 410 kts 129°
2026-05-07 10:23 -3.41960 105.29211 21256 ft 413 kts 128°
2026-05-07 10:24 -3.43780 105.31452 21643 ft 416 kts 127°
2026-05-07 10:24 -3.45616 105.33709 22035 ft 419 kts 128°
2026-05-07 10:24 -3.47475 105.35963 22426 ft 422 kts 128°
2026-05-07 10:24 -3.49365 105.38224 22798 ft 425 kts 128°
2026-05-07 10:25 -3.51276 105.40491 23164 ft 428 kts 129°
2026-05-07 10:25 -3.53204 105.42771 23490 ft 430 kts 129°
2026-05-07 10:25 -3.55145 105.45061 23792 ft 432 kts 129°
2026-05-07 10:25 -3.57091 105.47359 24100 ft 434 kts 129°
2026-05-07 10:26 -3.59047 105.49671 24412 ft 436 kts 129°
2026-05-07 10:26 -3.61011 105.51991 24710 ft 438 kts 129°
2026-05-07 10:26 -3.62983 105.54327 25002 ft 440 kts 129°
2026-05-07 10:26 -3.64958 105.56671 25293 ft 441 kts 129°
2026-05-07 10:27 -3.66941 105.59027 25580 ft 443 kts 129°
2026-05-07 10:27 -3.68932 105.61392 25882 ft 444 kts 129°
2026-05-07 10:27 -3.70921 105.63755 26310 ft 442 kts 129°
2026-05-07 10:27 -3.72901 105.66108 26686 ft 442 kts 129°
2026-05-07 10:28 -3.74888 105.68469 26798 ft 447 kts 129°
2026-05-07 10:28 -3.76904 105.70864 26804 ft 452 kts 129°
2026-05-07 10:28 -3.78939 105.73284 26822 ft 456 kts 129°
2026-05-07 10:28 -3.80994 105.75726 26819 ft 461 kts 129°
2026-05-07 10:29 -3.83063 105.78185 26814 ft 464 kts 129°
2026-05-07 10:29 -3.85152 105.80666 26815 ft 465 kts 129°
2026-05-07 10:29 -3.86531 105.82306 26802 ft 465 kts 129°
2026-05-07 10:30 -3.90699 105.87259 26810 ft 465 kts 129°
2026-05-07 10:30 -3.92781 105.89734 26803 ft 465 kts 129°
2026-05-07 10:30 -3.94868 105.92217 26806 ft 465 kts 129°
2026-05-07 10:30 -3.96947 105.94689 26807 ft 464 kts 129°
2026-05-07 10:31 -3.99027 105.97164 26803 ft 464 kts 129°
2026-05-07 10:31 -4.01106 105.99636 26812 ft 464 kts 129°
2026-05-07 10:31 -4.03187 106.02110 26801 ft 463 kts 129°
2026-05-07 10:31 -4.05257 106.04578 26802 ft 462 kts 129°
2026-05-07 10:32 -4.07328 106.07041 26811 ft 462 kts 129°
2026-05-07 10:32 -4.09404 106.09509 26811 ft 463 kts 129°
2026-05-07 10:32 -4.11504 106.11946 26809 ft 463 kts 130°
2026-05-07 10:32 -4.13638 106.14366 26806 ft 463 kts 130°
2026-05-07 10:33 -4.15778 106.16779 26806 ft 464 kts 130°
2026-05-07 10:33 -4.17929 106.19195 26806 ft 464 kts 130°
2026-05-07 10:33 -4.20077 106.21604 26805 ft 464 kts 130°
2026-05-07 10:33 -4.22230 106.24016 26808 ft 464 kts 130°
2026-05-07 10:34 -4.24378 106.26427 26806 ft 464 kts 129°
2026-05-07 10:34 -4.26236 106.29058 26813 ft 461 kts 117°
2026-05-07 10:34 -4.27663 106.31932 26817 ft 461 kts 114°
2026-05-07 10:34 -4.29003 106.34801 26799 ft 461 kts 114°
2026-05-07 10:35 -4.30351 106.37711 26815 ft 460 kts 114°
2026-05-07 10:35 -4.31710 106.40612 26805 ft 460 kts 114°
2026-05-07 10:35 -4.33107 106.43548 26804 ft 460 kts 115°
2026-05-07 10:35 -4.34479 106.46397 26811 ft 460 kts 115°
2026-05-07 10:36 -4.35881 106.49285 26802 ft 460 kts 115°
2026-05-07 10:36 -4.37284 106.52165 26812 ft 460 kts 115°
2026-05-07 10:36 -4.38685 106.55039 26810 ft 460 kts 115°
2026-05-07 10:36 -4.40088 106.57916 26803 ft 460 kts 115°
2026-05-07 10:37 -4.41492 106.60797 26814 ft 459 kts 115°
2026-05-07 10:37 -4.42892 106.63670 26804 ft 459 kts 115°
2026-05-07 10:37 -4.44293 106.66548 26811 ft 459 kts 115°
2026-05-07 10:37 -4.45694 106.69427 26807 ft 459 kts 115°
2026-05-07 10:38 -4.47094 106.72304 26802 ft 459 kts 115°
2026-05-07 10:38 -4.48494 106.75182 26815 ft 459 kts 115°
2026-05-07 10:38 -4.49891 106.78055 26819 ft 459 kts 115°
2026-05-07 10:38 -4.51292 106.80935 26805 ft 459 kts 115°
2026-05-07 10:39 -4.52692 106.83813 26811 ft 459 kts 115°
2026-05-07 10:39 -4.54089 106.86686 26804 ft 459 kts 115°
2026-05-07 10:39 -4.55487 106.89561 26811 ft 459 kts 115°
2026-05-07 10:39 -4.56885 106.92439 26808 ft 459 kts 115°
2026-05-07 10:40 -4.58285 106.95320 26809 ft 459 kts 115°
2026-05-07 10:40 -4.59681 106.98193 26811 ft 459 kts 115°
2026-05-07 10:40 -4.61082 107.01072 26812 ft 459 kts 115°
2026-05-07 10:40 -4.62844 107.03732 26807 ft 461 kts 132°
2026-05-07 10:41 -4.65309 107.05797 26814 ft 464 kts 146°
2026-05-07 10:41 -4.68220 107.07190 26807 ft 467 kts 161°
2026-05-07 10:41 -4.71394 107.07943 26826 ft 468 kts 167°
2026-05-07 10:41 -4.74588 107.08583 26816 ft 468 kts 167°
2026-05-07 10:42 -4.77785 107.09200 26804 ft 468 kts 167°
2026-05-07 10:42 -4.80989 107.09826 26812 ft 468 kts 167°
2026-05-07 10:42 -4.84180 107.10466 26803 ft 468 kts 167°
2026-05-07 10:42 -4.87375 107.11122 26809 ft 468 kts 167°
2026-05-07 10:43 -4.90569 107.11788 26808 ft 468 kts 166°
2026-05-07 10:43 -4.93761 107.12460 26805 ft 468 kts 167°
2026-05-07 10:43 -4.96953 107.13133 26805 ft 468 kts 166°
2026-05-07 10:43 -5.00136 107.13805 26810 ft 468 kts 166°
2026-05-07 10:44 -5.03327 107.14478 26813 ft 468 kts 167°
2026-05-07 10:44 -5.06515 107.15149 26815 ft 468 kts 166°
2026-05-07 10:44 -5.09659 107.15811 26811 ft 468 kts 167°
2026-05-07 10:44 -5.12855 107.16484 26809 ft 468 kts 167°
2026-05-07 10:45 -5.16039 107.17154 26806 ft 466 kts 167°
2026-05-07 10:45 -5.19191 107.17817 26797 ft 460 kts 167°
2026-05-07 10:45 -5.22321 107.18476 26807 ft 459 kts 167°
2026-05-07 10:45 -5.25457 107.19137 26819 ft 461 kts 167°
2026-05-07 10:46 -5.28602 107.19800 26659 ft 463 kts 167°
2026-05-07 10:46 -5.31751 107.20463 26129 ft 461 kts 167°
2026-05-07 10:46 -5.34843 107.21230 25550 ft 454 kts 158°
2026-05-07 10:46 -5.37592 107.22719 24985 ft 446 kts 143°
2026-05-07 10:47 -5.40099 107.24524 24386 ft 442 kts 142°
2026-05-07 10:47 -5.42566 107.26344 23803 ft 439 kts 142°
2026-05-07 10:47 -5.44992 107.28135 23177 ft 437 kts 142°
2026-05-07 10:47 -5.47467 107.29950 22507 ft 433 kts 142°
2026-05-07 10:48 -5.49891 107.31711 21903 ft 429 kts 143°
2026-05-07 10:48 -5.52300 107.33451 21316 ft 424 kts 143°
2026-05-07 10:48 -5.54660 107.35149 20743 ft 420 kts 143°
2026-05-07 10:48 -5.57019 107.36844 20175 ft 416 kts 143°
2026-05-07 10:49 -5.59364 107.38528 19599 ft 413 kts 143°
2026-05-07 10:49 -5.61696 107.40203 19007 ft 411 kts 143°
2026-05-07 10:49 -5.64011 107.41867 18439 ft 408 kts 143°
2026-05-07 10:49 -5.66310 107.43520 17815 ft 406 kts 143°
2026-05-07 10:50 -5.68597 107.45164 17197 ft 402 kts 143°
2026-05-07 10:50 -5.70862 107.46792 16644 ft 398 kts 143°
2026-05-07 10:50 -5.73095 107.48398 16076 ft 393 kts 143°
2026-05-07 10:50 -5.75309 107.49990 15532 ft 389 kts 143°
2026-05-07 10:51 -5.77501 107.51566 14924 ft 387 kts 143°
2026-05-07 10:51 -5.79680 107.53134 14351 ft 384 kts 143°
2026-05-07 10:51 -5.81844 107.54691 13801 ft 381 kts 143°
2026-05-07 10:51 -5.83989 107.56235 13223 ft 377 kts 143°
2026-05-07 10:52 -5.86094 107.57749 12946 ft 366 kts 143°
2026-05-07 10:52 -5.88124 107.59208 12697 ft 354 kts 143°
2026-05-07 10:52 -5.90104 107.60632 12300 ft 348 kts 143°
2026-05-07 10:52 -5.92217 107.61811 11545 ft 349 kts 160°
2026-05-07 10:53 -5.94598 107.62106 11153 ft 338 kts 182°
2026-05-07 10:53 -5.96839 107.61593 10904 ft 327 kts 201°
2026-05-07 10:53 -5.98795 107.60443 10752 ft 329 kts 217°
2026-05-07 10:53 -6.00326 107.58774 10565 ft 321 kts 233°
2026-05-07 10:54 -6.01542 107.56952 10402 ft 308 kts 236°
2026-05-07 10:54 -6.02677 107.55152 10244 ft 301 kts 236°
2026-05-07 10:54 -6.03795 107.53386 10093 ft 297 kts 236°
2026-05-07 10:54 -6.04901 107.51667 9944 ft 295 kts 235°
2026-05-07 10:55 -6.06015 107.49954 9799 ft 292 kts 235°
2026-05-07 10:55 -6.07128 107.48250 9638 ft 291 kts 235°
2026-05-07 10:55 -6.08235 107.46556 9475 ft 290 kts 235°
2026-05-07 10:55 -6.09341 107.44863 9321 ft 289 kts 235°
2026-05-07 10:56 -6.10438 107.43182 9169 ft 288 kts 235°
2026-05-07 10:56 -6.11532 107.41504 9022 ft 287 kts 235°
2026-05-07 10:56 -6.12624 107.39829 8865 ft 286 kts 235°
2026-05-07 10:56 -6.13715 107.38157 8730 ft 286 kts 235°
2026-05-07 10:57 -6.14801 107.36493 8589 ft 284 kts 235°
2026-05-07 10:57 -6.15878 107.34840 8441 ft 285 kts 235°
2026-05-07 10:57 -6.16967 107.33170 8293 ft 287 kts 235°
2026-05-07 10:57 -6.18065 107.31487 8147 ft 288 kts 235°
2026-05-07 10:58 -6.19161 107.29806 7997 ft 288 kts 235°
2026-05-07 10:58 -6.20254 107.28113 7838 ft 289 kts 236°
2026-05-07 10:58 -6.21333 107.26407 7694 ft 289 kts 236°
2026-05-07 10:58 -6.22400 107.24711 7545 ft 286 kts 236°
2026-05-07 10:59 -6.23455 107.23035 7394 ft 281 kts 236°
2026-05-07 10:59 -6.24497 107.21380 7249 ft 279 kts 236°
2026-05-07 10:59 -6.25538 107.19730 7112 ft 279 kts 236°
2026-05-07 10:59 -6.26577 107.18084 6964 ft 279 kts 236°
2026-05-07 11:00 -6.27613 107.16441 6821 ft 278 kts 236°
2026-05-07 11:00 -6.28650 107.14800 6685 ft 278 kts 236°
2026-05-07 11:00 -6.29683 107.13161 6543 ft 277 kts 236°
2026-05-07 11:00 -6.30700 107.11517 6401 ft 277 kts 237°
2026-05-07 11:01 -6.31712 107.09866 6255 ft 277 kts 237°
2026-05-07 11:01 -6.32722 107.08217 6107 ft 277 kts 237°
2026-05-07 11:01 -6.33732 107.06568 5965 ft 277 kts 237°
2026-05-07 11:01 -6.34744 107.04917 5812 ft 277 kts 237°
2026-05-07 11:02 -6.35756 107.03267 5664 ft 277 kts 237°
2026-05-07 11:02 -6.36764 107.01623 5514 ft 276 kts 237°
2026-05-07 11:02 -6.37771 106.99981 5373 ft 275 kts 237°
2026-05-07 11:02 -6.38775 106.98346 5230 ft 274 kts 237°
2026-05-07 11:03 -6.39767 106.96729 5086 ft 269 kts 237°
2026-05-07 11:03 -6.40565 106.95094 4964 ft 260 kts 255°
2026-05-07 11:03 -6.40899 106.93353 4886 ft 251 kts 259°
2026-05-07 11:03 -6.41199 106.91630 4763 ft 249 kts 259°
2026-05-07 11:04 -6.41501 106.89925 4659 ft 247 kts 259°
2026-05-07 11:04 -6.41807 106.88231 4546 ft 246 kts 258°
2026-05-07 11:04 -6.42117 106.86540 4439 ft 243 kts 259°
2026-05-07 11:04 -6.42418 106.84911 4326 ft 231 kts 258°
2026-05-07 11:05 -6.42705 106.83366 4233 ft 219 kts 259°
2026-05-07 11:05 -6.42982 106.81871 4154 ft 218 kts 259°
2026-05-07 11:05 -6.43237 106.80373 4069 ft 217 kts 268°
2026-05-07 11:05 -6.42887 106.78928 3925 ft 215 kts 305°
2026-05-07 11:06 -6.41787 106.77951 3768 ft 211 kts 333°
2026-05-07 11:06 -6.40482 106.77327 3595 ft 204 kts 338°
2026-05-07 11:06 -6.39203 106.76767 3421 ft 197 kts 338°
2026-05-07 11:06 -6.37966 106.76222 3242 ft 191 kts 338°
2026-05-07 11:07 -6.36760 106.75686 3042 ft 187 kts 338°
2026-05-07 11:07 -6.35594 106.75164 2867 ft 181 kts 338°
2026-05-07 11:07 -6.34463 106.74655 2695 ft 174 kts 339°
2026-05-07 11:07 -6.33333 106.74375 2511 ft 163 kts 11°
2026-05-07 11:08 -6.32397 106.74834 2425 ft 150 kts 45°
2026-05-07 11:08 -6.31924 106.75757 2327 ft 150 kts 74°
2026-05-07 11:08 -6.31620 106.76756 2176 ft 150 kts 72°
2026-05-07 11:08 -6.31312 106.77752 2015 ft 149 kts 72°
2026-05-07 11:09 -6.31011 106.78740 1876 ft 147 kts 72°
2026-05-07 11:09 -6.30717 106.79719 1751 ft 147 kts 72°
2026-05-07 11:09 -6.30414 106.80697 1648 ft 146 kts 70°
2026-05-07 11:09 -6.30050 106.81655 1473 ft 148 kts 66°
2026-05-07 11:10 -6.29630 106.82614 1276 ft 151 kts 65°
2026-05-07 11:10 -6.29196 106.83575 1069 ft 150 kts 65°
2026-05-07 11:10 -6.28763 106.84523 889 ft 149 kts 65°
2026-05-07 11:10 -6.28410 106.85291 701 ft 146 kts 65°
2026-05-07 11:11 -6.28242 106.85661 630 ft 143 kts 65°
2026-05-07 11:11 -6.27829 106.86570 431 ft 141 kts 65°
2026-05-07 11:11 -6.27412 106.87485 222 ft 145 kts 64°
2026-05-07 11:11 -6.26985 106.88386 92 ft 135 kts 67°
2026-05-07 11:12 -6.26822 106.88793 94 ft 103 kts 70°
2026-05-07 11:12 -6.26763 106.88945 95 ft 94 kts 65°
2026-05-07 11:12 -6.26638 106.89166 95 ft 78 kts 57°
2026-05-07 11:12 -6.26468 106.89528 94 ft 38 kts 65°
2026-05-07 11:13 -6.26389 106.89697 92 ft 24 kts 65°
2026-05-07 11:13 -6.26351 106.89778 93 ft 14 kts 59°
2026-05-07 11:13 -6.26278 106.89801 94 ft 6 kts 355°
2026-05-07 11:13 -6.26236 106.89811 94 ft 6 kts 20°
2026-05-07 11:14 -6.26211 106.89821 93 ft 6 kts 22°
2026-05-07 11:14 -6.26173 106.89839 92 ft 6 kts 25°
2026-05-07 11:14 -6.26124 106.89862 94 ft 6 kts 25°
2026-05-07 11:14 -6.26098 106.89870 93 ft 6 kts
2026-05-07 11:15 -6.26046 106.89858 92 ft 6 kts 345°
2026-05-07 11:15 -6.26008 106.89847 92 ft 6 kts 344°
2026-05-07 11:15 -6.25983 106.89840 92 ft 6 kts 344°
2026-05-07 11:15 -6.25946 106.89829 92 ft 6 kts 344°
2026-05-07 11:16 -6.25909 106.89818 92 ft 5 kts 344°
2026-05-07 11:16 -6.25874 106.89808 92 ft 5 kts 345°
2026-05-07 11:16 -6.25839 106.89797 94 ft 4 kts 330°
2026-05-07 11:16 -6.25830 106.89772 92 ft 4 kts 271°
2026-05-07 11:17 -6.25830 106.89744 92 ft 4 kts 271°
2026-05-07 11:17 -6.25840 106.89721 92 ft 4 kts 219°
2026-05-07 11:17 -6.25866 106.89713 92 ft 4 kts 183°
2026-05-07 11:17 -6.25873 106.89713 93 ft 0 kts 183°